Location: Ravensburg
(47.7866°N, 9.6124°E)
Time: 07:59:49
(UTC+01:00)

SEEDS - Visible Passes

Search period start: 11 March 2026 00:00
Search period end: 21 March 2026 00:00
Orbit: 478 x 479 km, 97.8° (Epoch: 10 March)

Date Brightness Start Highest point End Pass type
(mag) Time Alt. Az. Time Alt. Az. Time Alt. Az.
11 Mar ? 05:27:58 10° NNE 05:31:25 45° E 05:34:50 10° S visible
12 Mar ? 05:02:07 10° NE 05:04:59 22° E 05:07:50 10° SSE visible
13 Mar ? 04:37:09 10° ENE 04:38:25 11° E 04:39:40 10° ESE visible
14 Mar ? 05:42:07 10° NNE 05:45:40 67° ESE 05:49:12 10° S visible
15 Mar ? 05:15:56 10° NNE 05:19:10 31° E 05:22:22 10° SSE visible
16 Mar ? 04:50:13 10° NE 04:52:31 16° E 04:54:47 10° SE visible
17 Mar ? 05:55:56 10° NNE 05:59:30 83° WNW 06:03:03 10° SSW visible
18 Mar ? 05:29:28 10° NNE 05:32:55 45° E 05:36:19 10° S visible
19 Mar ? 05:03:19 10° NE 05:06:11 22° E 05:09:00 10° SSE visible
20 Mar ? 04:38:09 10° ENE 04:39:18 11° E 04:40:26 10° ESE visible
